Regional Weather Roundup
Issued by NWS

Home | Current Version | Previous Version | Text Only | Print | Product List | Glossary Off
Versions: 1 2 3 4 5 6 7 8 9 10 11 12 13 14 15 16 17 18 19 20 21 22 23 24 25 26 27 28 29 30 31 32 33 34 35 36 37 38 39 40 41 42 43 44 45 46 47 48 49 50

254
ASUS43 KFSD 271902
RWRSD

WEATHER ROUNDUP FOR SOUTH DAKOTA
NATIONAL WEATHER SERVICE SIOUX FALLS SD
100 PM CST MON FEB 27 2017

NOTE: "FAIR" INDICATES FEW OR NO CLOUDS BELOW 12,000 FEET WITH NO
SIGNIFICANT WEATHER AND/OR OBSTRUCTIONS TO VISIBILITY.


SDZ001>005-009-010-012>017-272000-
NORTHWEST AND NORTH CENTRAL SOUTH DAKOTA

CITY           SKY/WX    TMP DP  RH WIND       PRES   REMARKS
BUFFALO          N/A     34  21  59 CALM      29.57F
FAITH            N/A     36  21  54 NE6       29.65S
MOBRIDGE       SUNNY     37  21  52 SE3       29.67F
$$

SDZ012>016-024>037-041>051-057-063-072>074-272000-
SOUTHWEST AND SOUTH CENTRAL SOUTH DAKOTA

CITY           SKY/WX    TMP DP  RH WIND       PRES   REMARKS
RAPID CTY ARPT CLOUDY    43  23  45 SW21      29.60F
PIERRE         SUNNY     44  16  32 VRB6      29.67F
CUSTER         CLOUDY    29  21  72 W9        29.56F WCI  20
ELLSWORTH AFB  CLOUDY    38  22  50 CALM      29.60F
PHILIP         PTSUNNY   48  17  29 SW21      29.65S
PINE RIDGE     CLOUDY    35  20  54 SW8       29.65S WCI  29
SPEARFISH      FAIR      36  12  38 NE8       29.59F
WINNER         FAIR      44  27  51 SW18      29.71F
$$

SDZ004>011-016>023-039-040-272000-
NORTHEAST SOUTH DAKOTA

CITY           SKY/WX    TMP DP  RH WIND       PRES   REMARKS
ABERDEEN       CLOUDY    38  21  50 S9        29.76F
WATERTOWN      MOSUNNY   41  18  39 S17G29    29.76F
BROOKINGS      CLOUDY    41  19  41 S18       29.80F
SISSETON         N/A     32  27  81 S9        29.80F WCI  24
$$

SDZ017-020-022-023-036>040-048>070-272000-
SOUTHEAST SOUTH DAKOTA

CITY           SKY/WX    TMP DP  RH WIND       PRES   REMARKS
SIOUX FALLS    CLOUDY    42  24  49 S13       29.84F
HURON          CLOUDY    42  17  36 S16G24    29.75F
CHAMBERLAIN    MOSUNNY   47  26  44 S21       29.72F
MITCHELL       CLOUDY    42  21  43 S13G23    29.79F
YANKTON        CLOUDY    43  25  49 SE12G17   29.82F
$$

ABBREVIATIONS USED IN REMARKS
   TC - TEMPERATURE IN CELSIUS
  WCI - WIND CHILL INDEX
   HX - HEAT INDEX
  VSB - VISIBILITY





USA.gov is the U.S. government's official web portal to all federal, state and local government web resources and services.